Location: Eschentzwiller
(47.7125°N, 7.3981°E)
Time: 04:20:09
(UTC+00:00)

Landsat 5 - Pass Details

Date: 27 October 2020
Orbit: 529 x 653 km, 98.2° (Epoch: 01 December)

Event Time Altitude Azimuth Distance (km) Brightness Sun altitude
Rises 16:46:14 0° 10° (N) 2,690 6.6 -5.0°
Reaches altitude 10° 16:48:21 10° 7° (N) 1,802 5.8 -5.4°
Maximum altitude 16:52:10 59° 288° (WNW) 633 4.0 -6.0°
Drops below altitude 10° 16:56:03 10° 208° (SSW) 1,835 6.6 -6.6°
Sets 16:58:13 0° 205° (SSW) 2,744 7.5 -7.0°
